Parkersburg, WV

7:53 PM EDT on June 18, 2018 (GMT -0400)
Wood County Wilson

Weather History for KPKB - June, 2018

Change the Weather History Date:

Wednesday, June 13, 2018

  Actual Average Record
Temperature  
Mean Temperature 76 °F 70 °F  
Max Temperature 84 °F 81 °F 94 °F (1943)
Min Temperature 68 °F 59 °F 46 °F (1974)
Degree Days  
Heating Degree Days 0 1  
Month to date heating degree days 17 17  
Since 1 June heating degree days 17 17  
Since 1 July heating degree days 4954 4970  
Cooling Degree Days 11 6  
Month to date cooling degree days 73 62  
Year to date cooling degree days 310 146  
Since 1 June cooling degree days 73 62  
Growing Degree Days 25 (Base 50)    
Moisture  
Dew Point 68 °F    
Average Humidity 78    
Maximum Humidity 90    
Minimum Humidity 65    
Precipitation  
Precipitation 0.32 in 0.13 in 2.77 in (1946)
Month to date precipitation 1.10 1.87  
Year to date precipitation 24.37 18.82  
Sea Level Pressure  
Sea Level Pressure 29.96 in    
Wind  
Wind Speed 7 mph (SW)    
Max Wind Speed 15 mph    
Max Gust Speed 21 mph    
Visibility 8 miles    
Events Rain , Thunderstorm    
T = Trace of Precipitation, MM = Missing Value Source: NWS Daily Summary

Daily Weather History Graph

Daily Weather History Graph

Search for Another Location

Airport or City:

Astronomy

Jun. 13, 2018 Rise Set
Actual Time 5:58 AM EDT 8:53 PM EDT
Civil Twilight 5:26 AM EDT 9:25 PM EDT
Nautical Twilight 4:45 AM EDT 10:06 PM EDT
Astronomical Twilight 3:58 AM EDT 10:53 PM EDT
Moon 5:58 AM EDT (6/13) 8:47 PM EDT (6/13)
Length of Visible Light 15h 59m
Length of Day
14h 55m
Waning Crescent, 0% of the Moon is Illuminated
Jun 13
Waning Crescent
Jun 13
New
Jun 20
First Quarter
Jun 28
Full
Jul 6
Last Quarter

Hourly Weather History & Observations

Time (EDT) Temp. Heat Index Dew Point Humidity Pressure Visibility Wind Dir Wind Speed Gust Speed Precip Events Conditions
12:53 AM 70.0 °F - 66.9 °F 90% 29.99 in 5.0 mi Calm Calm - 0.01 in Rain Light Rain
1:53 AM 69.1 °F - 66.9 °F 93% 29.96 in 2.0 mi ESE 5.8 mph - 0.02 in Rain Heavy Rain
2:01 AM 69.1 °F - 66.9 °F 93% 30.01 in 2.0 mi North - - 0.00 in Rain , Thunderstorm Heavy Rain
2:06 AM 69.1 °F - 66.9 °F 93% 30.00 in 0.8 mi Calm Calm - N/A Rain , Thunderstorm Heavy Rain
2:15 AM 69.1 °F - 66.9 °F 93% 30.00 in 2.0 mi WSW 4.6 mph - N/A Rain , Thunderstorm Rain
2:23 AM 69.1 °F - 66.9 °F 93% 30.00 in 1.0 mi South 4.6 mph - N/A Rain , Thunderstorm Heavy Rain
2:41 AM 69.1 °F - 66.9 °F 93% 29.99 in 2.5 mi SSW 6.9 mph - N/A Rain , Thunderstorm Thunderstorms and Rain
2:53 AM 69.1 °F - 66.9 °F 93% 29.97 in 3.0 mi South 5.8 mph - N/A Rain , Thunderstorm Light Rain
3:15 AM 69.1 °F - 66.9 °F 93% 29.98 in 7.0 mi SSW 5.8 mph - 0.02 in Rain Light Rain
3:45 AM 69.1 °F - 66.9 °F 93% 29.99 in 10.0 mi South 8.1 mph - 0.05 in Rain Light Rain
3:53 AM 69.1 °F - 66.9 °F 93% 29.96 in 10.0 mi South 9.2 mph - 0.05 in Rain Light Rain
4:53 AM 68.0 °F - 66.0 °F 93% 29.96 in 8.0 mi South 5.8 mph - 0.06 in Rain Light Rain
5:53 AM 69.1 °F - 66.0 °F 90% 29.95 in 10.0 mi South 6.9 mph - 0.06 in   Scattered Clouds
6:39 AM 69.1 °F - 66.0 °F 90% 29.98 in 10.0 mi South 5.8 mph - 0.04 in   Mostly Cloudy
6:53 AM 69.1 °F - 66.0 °F 90% 29.96 in 10.0 mi South 6.9 mph - 0.04 in   Overcast
7:53 AM 69.1 °F - 66.9 °F 93% 29.96 in 10.0 mi South 5.8 mph - N/A   Overcast
8:53 AM 71.1 °F - 66.9 °F 87% 29.98 in 10.0 mi WSW 6.9 mph - N/A   Overcast
9:53 AM 72.0 °F - 68.0 °F 87% 29.98 in 10.0 mi Variable 6.9 mph - N/A   Mostly Cloudy
10:53 AM 75.9 °F - 69.1 °F 79% 29.96 in 10.0 mi SW 8.1 mph 17.3 mph N/A   Mostly Cloudy
11:53 AM 77.0 °F - 69.1 °F 76% 29.97 in 10.0 mi WSW 8.1 mph - N/A   Overcast
12:53 PM 77.0 °F - 68.0 °F 74% 29.98 in 10.0 mi WSW 9.2 mph 16.1 mph N/A   Overcast
1:33 PM 81.0 °F 84.1 °F 69.1 °F 67% 29.99 in 10.0 mi West 11.5 mph 17.3 mph N/A   Mostly Cloudy
1:53 PM 82.0 °F 85.9 °F 70.0 °F 67% 29.96 in 10.0 mi SSW 10.4 mph 18.4 mph N/A   Scattered Clouds
2:53 PM 82.0 °F 85.9 °F 70.0 °F 67% 29.94 in 10.0 mi WSW 8.1 mph - N/A   Mostly Cloudy
3:53 PM 82.9 °F 86.5 °F 69.1 °F 63% 29.92 in 10.0 mi West 8.1 mph - N/A   Partly Cloudy
4:53 PM 82.9 °F 86.5 °F 69.1 °F 63% 29.91 in 10.0 mi Variable 6.9 mph 18.4 mph N/A   Mostly Cloudy
5:53 PM 82.0 °F 85.9 °F 70.0 °F 67% 29.93 in 10.0 mi SW 6.9 mph - N/A   Mostly Cloudy
6:53 PM 80.1 °F 83.6 °F 71.1 °F 74% 29.90 in 10.0 mi SSW 6.9 mph - N/A   Mostly Cloudy
7:35 PM 79.0 °F - 71.1 °F 77% 29.94 in 10.0 mi SW 9.2 mph - N/A Thunderstorm Thunderstorm
7:53 PM 78.1 °F - 71.1 °F 79% 29.90 in 7.0 mi SSW 8.1 mph - 0.00 in Rain , Thunderstorm Light Thunderstorms and Rain
8:49 PM 77.0 °F - 71.6 °F 83% 29.93 in 9.0 mi WSW 6.9 mph - 0.00 in Thunderstorm Partly Cloudy
8:53 PM 77.0 °F - 71.1 °F 82% 29.91 in 6.0 mi WSW 6.9 mph - 0.00 in Rain , Thunderstorm Light Rain
9:43 PM 73.9 °F - 71.1 °F 91% 29.96 in 4.0 mi West 6.9 mph - 0.04 in   Clear
9:53 PM 73.9 °F - 71.1 °F 91% 29.95 in 4.0 mi WNW 4.6 mph - 0.04 in   Clear
10:53 PM 73.0 °F - 69.1 °F 87% 29.96 in 10.0 mi SW 5.8 mph - 0.02 in   Overcast
11:53 PM 71.1 °F - 68.0 °F 90% 29.96 in 10.0 mi WNW 3.5 mph - N/A   Partly Cloudy